Location: Volkssternwarte_EN
(51.3230°N, 7.4010°E)
Time: 15:41:59
(UTC+02:00)

ISS - Visible Passes

Search period start: 16 April 2024 00:00
Search period end: 26 April 2024 00:00
Orbit: 413 x 419 km, 51.6° (Epoch: 16 April)

Date Brightness Start Highest point End Pass type
(mag) Time Alt. Az. Time Alt. Az. Time Alt. Az.
22 Apr -1.2 05:33:26 10° S 05:35:21 15° SE 05:37:16 10° ESE visible
24 Apr -2.3 05:31:05 10° SSW 05:34:00 28° SSE 05:36:54 10° E visible
25 Apr -1.8 04:43:30 14° S 04:45:15 20° SE 04:47:45 10° E visible
